This is the latest recevied weather packets stored in our database for station/object DC1MPP-9. If no packets are shown the sender has not sent any weather packets the latest 10 day(s).
| Time | Temp. | Humidity | Pressure | Rain* | Wind** | Luminosity | Snow |
|---|---|---|---|---|---|---|---|
| 1787745580 | 29.44° C | 62% | 960 hPa | - | - | - | - |
| 1787745339 | 29.44° C | 55% | 960 hPa | - | - | - | - |
| 1787745098 | 29.44° C | 56% | 960 hPa | - | - | - | - |
| 1787744857 | 29.44° C | 51% | 960 hPa | - | - | - | - |
| 1787744616 | 29.44° C | 57% | 960 hPa | - | - | - | - |
| 1787744375 | 29.44° C | 54% | 960 hPa | - | - | - | - |
| 1787744134 | 28.89° C | 57% | 960 hPa | - | - | - | - |
| 1787743652 | 28.89° C | 64% | 960 hPa | - | - | - | - |
| 1787743410 | 28.89° C | 57% | 960 hPa | - | - | - | - |
| 1787743169 | 28.89° C | 62% | 961 hPa | - | - | - | - |
| 1787742446 | 28.89° C | 64% | 961 hPa | - | - | - | - |
| 1787742205 | 28.89° C | 61% | 961 hPa | - | - | - | - |
| 1787741964 | 28.33° C | 62% | 961 hPa | - | - | - | - |
| 1787741723 | 28.89° C | 61% | 961 hPa | - | - | - | - |
| 1787741482 | 28.89° C | 67% | 961 hPa | - | - | - | - |
| 1787741241 | 28.89° C | 66% | 961 hPa | - | - | - | - |
| 1787741000 | 28.89° C | 59% | 961 hPa | - | - | - | - |
| 1787740518 | 28.33° C | 66% | 961 hPa | - | - | - | - |
| 1787740277 | 28.33° C | 76% | 961 hPa | - | - | - | - |
| 1787740036 | 27.78° C | 74% | 961 hPa | - | - | - | - |
| 1787739795 | 27.78° C | 69% | 961 hPa | - | - | - | - |
| 1787739554 | 28.33° C | 80% | 961 hPa | - | - | - | - |
| 1787739312 | 27.78° C | 73% | 961 hPa | - | - | - | - |
| 1787739071 | 27.78° C | 82% | 961 hPa | - | - | - | - |
| 1787738589 | 27.22° C | 75% | 961 hPa | - | - | - | - |
* Rain since midnight (hover to see other rain measurements)
** Current wind speed in m/s (hover to see current wind gust speed)